Location: Unspecified
(45.3999°N, 88.1269°W)
Time: 00:57:54
(UTC-06:00)

ISS - Visible Passes

Search period start: 22 January 2019 00:00
Search period end: 01 February 2019 00:00
Orbit: 404 x 410 km, 51.6° (Epoch: 23 January)

Date Brightness Start Highest point End Pass type
(mag) Time Alt. Az. Time Alt. Az. Time Alt. Az.
22 Jan -2.6 18:38:38 10° SSW 18:40:58 32° S 18:40:58 32° S visible
23 Jan -2.2 17:47:54 10° S 17:50:30 22° SE 17:52:00 16° E visible
23 Jan -1.2 19:23:31 10° WSW 19:24:44 21° WSW 19:24:44 21° WSW visible
24 Jan -4.0 18:32:08 10° WSW 18:35:25 82° SSE 18:35:41 73° E visible
25 Jan -3.3 17:40:55 10° SW 17:44:06 48° SE 17:46:33 16° ENE visible
25 Jan -1.5 19:17:35 10° W 19:19:17 24° WNW 19:19:17 24° WNW visible
26 Jan -3.3 18:26:00 10° W 18:29:14 52° NNW 18:30:05 39° NNE visible
27 Jan -3.8 17:34:30 10° WSW 17:37:47 80° NNW 17:40:51 12° ENE visible
27 Jan -1.7 19:11:44 10° WNW 19:13:34 23° NW 19:13:34 23° NW visible
28 Jan -2.6 18:20:03 10° W 18:23:06 34° NNW 18:24:16 26° NNE visible
29 Jan -3.1 17:28:23 10° W 17:31:34 44° NNW 17:34:46 10° NE visible
29 Jan -1.8 19:05:46 10° WNW 19:07:40 23° NNW 19:07:40 23° NNW visible
30 Jan -2.4 18:14:06 10° WNW 18:17:00 27° N 18:18:20 21° NNE visible
31 Jan -2.5 17:22:24 10° WNW 17:25:23 31° NNW 17:28:24 10° NE visible
31 Jan -2.1 18:59:35 10° NW 19:01:42 25° NNW 19:01:42 25° NNW visible
